FW7818 Weather Reports


Display with metric or nautical units.
time (UTC)temp
F
wind
direction
speed
MPH
gust
MPH
rain 1hr
in
rain 24hr
in
rain mn
in
humidity
%
barometer
mb
20260506091307 76 155 4.0 10.0 0.00 0.00 0.00 89 1008.6
20260506090805 76 166 4.0 9.0 0.00 0.00 0.00 89 1008.6
20260506090307 76 145 5.0 9.0 0.00 0.00 0.00 88 1008.5
20260506085836 76 130 4.0 10.0 0.00 0.00 0.00 88 1008.3
20260506085807 76 130 4.0 10.0 0.00 0.00 0.00 88 1008.3
20260506084245 76 147 6.0 11.0 0.00 0.00 0.00 88 1008.4
20260506083753 76 168 5.0 12.0 0.00 0.00 0.00 88 1008.4
20260506083244 76 180 5.0 12.0 0.00 0.00 0.00 88 1008.5
20260506082744 76 152 6.0 11.0 0.00 0.00 0.00 88 1008.4
20260506082241 76 149 6.0 12.0 0.00 0.00 0.00 88 1008.4
20260506081739 76 0 6.0 12.0 0.00 0.00 0.00 88 1008.4
20260506081239 76 153 7.0 13.0 0.00 0.00 0.00 88 1008.5
20260506080733 76 152 7.0 13.0 0.00 0.00 0.00 88 1008.6
20260506080234 76 158 7.0 11.0 0.00 0.00 0.00 88 1008.6
20260506073233 76 179 8.0 15.0 0.00 0.00 0.00 88 1008.9
20260506072723 76 161 9.0 15.0 0.00 0.00 0.00 88 1008.9
20260506072224 76 146 8.0 15.0 0.00 0.00 0.00 88 1008.9
20260506072004 76 0 8.0 16.0 0.00 0.00 0.00 88 1009.0
20260506071218 76 157 9.0 18.0 0.00 0.00 0.00 88 1009.1
20260506070717 76 136 10.0 18.0 0.00 0.00 0.00 88 1009.0
20260506070221 76 186 9.0 19.0 0.00 0.00 0.00 88 1008.8
20260506062206 76 0 8.0 14.0 0.00 0.00 0.00 88 1008.9
20260506061705 76 172 8.0 15.0 0.00 0.00 0.00 88 1008.8
20260506061203 76 127 8.0 15.0 0.00 0.00 0.00 88 1009.0
20260506060703 76 125 7.0 15.0 0.00 0.00 0.00 88 1008.8
20260506060201 76 150 7.0 15.0 0.00 0.00 0.00 88 1008.8
20260506051201 76 145 8.0 14.0 0.00 0.00 0.00 88 1008.9
20260506050701 76 146 7.0 14.0 0.00 0.00 0.00 88 1008.9
20260506050427 76 190 7.0 14.0 0.00 0.00 0.00 88 1008.8
20260506044634 76 141 8.0 16.0 0.00 0.00 0.00 88 1008.8
20260506044134 76 0 9.0 16.0 0.00 0.00 0.00 88 1008.9
20260506043634 76 163 8.0 15.0 0.00 0.00 0.00 88 1008.9
20260506043134 77 0 8.0 16.0 0.00 0.00 0.00 87 1008.8
20260506042633 77 157 8.0 16.0 0.00 0.00 0.00 87 1008.9
20260506042134 77 148 7.0 14.0 0.00 0.00 0.00 87 1008.9
20260506041633 77 148 7.0 14.0 0.00 0.00 0.00 87 1008.7
20260506041412 77 144 8.0 14.0 0.00 0.00 0.00 87 1008.7
20260506040632 77 172 8.0 14.0 0.00 0.00 0.00 87 1008.6
20260506040425 77 128 7.0 13.0 0.00 0.00 0.00 87 1008.6
20260506035629 77 0 7.0 13.0 0.00 0.00 0.00 86 1008.6
20260506035131 77 133 8.0 14.0 0.00 0.00 0.00 86 1008.4
20260506034629 77 132 8.0 14.0 0.00 0.00 0.00 86 1008.3
20260506034130 77 164 7.0 14.0 0.00 0.00 0.00 86 1008.3
20260506033629 78 127 7.0 12.0 0.00 0.00 0.00 86 1008.5
20260506033351 78 140 7.0 13.0 0.00 0.00 0.00 85 1008.5
20260506032630 78 157 7.0 13.0 0.00 0.00 0.00 85 1008.3
20260506032131 78 144 7.0 13.0 0.00 0.00 0.00 85 1008.1
20260506031914 78 109 7.0 13.0 0.00 0.00 0.00 84 1008.1
20260506031127 78 134 7.0 13.0 0.00 0.00 0.00 84 1008.0
20260506030625 78 138 7.0 12.0 0.00 0.00 0.00 84 1008.0
20260506030126 78 129 7.0 13.0 0.00 0.00 0.00 84 1007.8
20260506025624 78 133 6.0 13.0 0.00 0.00 0.00 83 1008.0
20260506025124 78 136 6.0 11.0 0.00 0.00 0.00 83 1008.0
20260506024622 78 139 5.0 9.0 0.00 0.00 0.00 83 1007.7
20260506024120 78 118 5.0 9.0 0.00 0.00 0.00 83 1007.7
20260506023623 78 140 5.0 9.0 0.00 0.00 0.00 83 1007.7
20260506023123 78 140 5.0 9.0 0.00 0.00 0.00 83 1007.5
20260506022622 78 125 5.0 9.0 0.00 0.00 0.00 82 1007.5
20260506022143 79 148 5.0 9.0 0.00 0.00 0.00 82 1007.3
20260506022133 78 140 5.0 9.0 0.00 0.00 0.00 82 1007.3
20260506021121 79 104 5.0 9.0 0.00 0.00 0.00 82 1007.3
20260506020612 79 118 6.0 9.0 0.00 0.00 0.00 82 1007.2
20260506020112 79 144 6.0 10.0 0.00 0.00 0.00 81 1006.9
20260506015615 79 0 6.0 10.0 0.00 0.00 0.00 81 1006.8
20260506015112 79 121 4.0 9.0 0.00 0.00 0.00 81 1006.7
20260506014612 79 114 4.0 9.0 0.00 0.00 0.00 81 1006.7
20260506014116 80 118 5.0 9.0 0.00 0.00 0.00 80 1006.8
20260506013616 80 120 5.0 9.0 0.00 0.00 0.00 80 1006.8
20260506013115 80 123 5.0 11.0 0.00 0.00 0.00 80 1006.7
20260506012611 80 130 5.0 11.0 0.00 0.00 0.00 79 1006.9
20260506012125 80 0 5.0 10.0 0.00 0.00 0.00 79 1006.8
20260506011618 81 134 5.0 9.0 0.00 0.00 0.00 78 1007.0
20260506011608 81 138 5.0 8.0 0.00 0.00 0.00 78 1006.8
20260506011045 81 127 4.0 9.0 0.00 0.00 0.00 77 1006.9
20260506010458 82 142 3.0 7.0 0.00 0.00 0.00 76 1006.9
20260506010440 82 148 3.0 7.0 0.00 0.00 0.00 76 1007.0
20260506010356 82 172 3.0 8.0 0.00 0.00 0.00 75 1006.9
20260506010339 81 133 4.0 7.0 0.00 0.00 0.00 77 1006.8
20260506010300 83 151 3.0 8.0 0.00 0.00 0.00 74 1007.0
20260506010224 83 132 4.0 9.0 0.00 0.00 0.00 74 1006.9
20260506010139 83 173 6.0 10.0 0.00 0.00 0.00 73 1006.6
20260506010111 81 133 4.0 7.0 0.00 0.00 0.00 77 1006.8
20260506010029 82 0 4.0 8.0 0.00 0.00 0.00 76 1006.7
20260506005930 82 141 3.0 8.0 0.00 0.00 0.00 76 1006.7
20260506005808 82 130 4.0 7.0 0.00 0.00 0.00 76 1006.8
20260506001320 83 146 3.0 9.0 0.00 0.00 0.00 74 1007.0
20260506000542 83 182 3.0 7.0 0.00 0.00 0.00 75 1006.8
20260506000519 83 121 4.0 9.0 0.00 0.00 0.00 74 1006.7
20260505235743 84 181 6.0 14.0 0.00 0.00 0.00 71 1006.7
20260505235522 83 157 5.0 11.0 0.00 0.00 0.00 74 1006.6
20260505235316 84 150 6.0 12.0 0.00 0.00 0.00 72 1006.6
20260505235001 83 150 5.0 11.0 0.00 0.00 0.00 74 1006.6
20260505234956 83 138 5.0 12.0 0.00 0.00 0.00 73 1006.5
20260505234244 83 166 6.0 12.0 0.00 0.00 0.00 73 1006.5
20260505231431 84 0 5.0 14.0 0.00 0.00 0.00 72 1006.7
20260505230928 84 196 6.0 13.0 0.00 0.00 0.00 72 1006.7
20260505230648 84 180 6.0 13.0 0.00 0.00 0.00 71 1006.5
20260505230155 84 167 5.0 8.0 0.00 0.00 0.00 71 1006.4
20260505225416 85 150 7.0 0.0 0.00 0.00 0.00 70 1006.6
20260505224925 85 142 6.0 11.0 0.00 0.00 0.00 70 1006.4
20260505224655 85 142 6.0 14.0 0.00 0.00 0.00 70 1006.4
20260505224149 85 158 7.0 14.0 0.00 0.00 0.00 69 1006.4
20260505223943 85 158 7.0 14.0 0.00 0.00 0.00 69 1006.4
20260505223357 85 165 7.0 16.0 0.00 0.00 0.00 69 1006.4
20260505222649 85 167 7.0 15.0 0.00 0.00 0.00 69 1006.4
20260505222459 85 162 7.0 14.0 0.00 0.00 0.00 69 1006.5
20260505221920 85 167 7.0 15.0 0.00 0.00 0.00 69 1006.4
20260505221649 85 167 7.0 15.0 0.00 0.00 0.00 70 1006.2
20260505220647 87 153 7.0 15.0 0.00 0.00 0.00 67 1006.5
20260505220623 86 166 6.0 15.0 0.00 0.00 0.00 71 1006.8
20260505215249 87 159 8.0 15.0 0.00 0.00 0.00 69 1006.7
20260505214748 88 108 8.0 17.0 0.00 0.00 0.00 67 1006.5
20260505214655 87 144 8.0 21.0 0.00 0.00 0.00 68 1006.8
20260505214254 87 180 8.0 21.0 0.00 0.00 0.00 65 1007.2
20260505213741 87 180 8.0 21.0 0.00 0.00 0.00 65 1007.2
20260505213240 86 193 7.0 13.0 0.00 0.00 0.00 68 1007.1
20260505213026 87 159 7.0 13.0 0.00 0.00 0.00 67 1007.2
20260505212231 87 195 7.0 13.0 0.00 0.00 0.00 70 1007.2
20260505211729 87 219 7.0 12.0 0.00 0.00 0.00 65 1007.4
20260505211240 87 205 8.0 18.0 0.00 0.00 0.00 70 1007.7
20260505211230 87 173 8.0 18.0 0.00 0.00 0.00 66 1007.4
20260505211203 89 164 7.0 18.0 0.00 0.00 0.00 65 1006.9
20260505210327 85 0 7.0 13.0 0.00 0.00 0.00 69 1007.6
20260505210243 88 168 8.0 16.0 0.00 0.00 0.00 66 1007.3
20260505210228 88 117 7.0 14.0 0.00 0.00 0.00 69 1007.2
20260505205557 86 119 8.0 16.0 0.00 0.00 0.00 70 1007.9
20260505205223 87 0 8.0 17.0 0.00 0.00 0.00 66 1007.5
20260505204747 88 0 9.0 17.0 0.00 0.00 0.00 67 1007.6
20260505204247 88 155 9.0 15.0 0.00 0.00 0.00 65 1007.6
20260505204228 87 0 7.0 18.0 0.00 0.00 0.00 67 1007.5
20260505203745 87 159 8.0 16.0 0.00 0.00 0.00 70 1007.6
20260505203700 86 153 7.0 16.0 0.00 0.00 0.00 68 1008.0
20260505202312 85 136 7.0 13.0 0.00 0.00 0.00 73 1007.5
20260505200127 85 0 6.0 0.0 0.00 0.00 0.00 73 1007.9